Home   Weather   Long Beach   Past weeks

Flag for USA Past Weather in Long Beach, California, USA — Yesterday and Last 2 Weeks

Now
62 °F

Sunny.


Feels Like: 62 °F
Forecast: 59 / 77 °F
Wind: 3 mph from North

Location: Long Beach Airport

Current Time: Apr 26, 2017 at 8:45:47 am

Latest Report: Apr 26, 2017 at 7:53 am


Visibility: 8 mi

Pressure: 29.90 "Hg

Humidity: 78%

Dew Point: 55 °F

Location of Long BeachLocation

Past Weather in Long Beach — Graph

°F

Long Beach Temperature Yesterday

Maximum temperature yesterday: 76 °F (at 11:53 am)
Minimum temperature yesterday: 57 °F (at 5:53 am)
Average temperature yesterday: 66 °F

High & Low Weather Summary for the Past Weeks

 TemperatureHumidityPressure
High85 °F (Apr 21, 3:53 pm)90% (Apr 20, 6:18 am)30.13 "Hg (Apr 20, 6:18 am)
Low51 °F (Apr 15, 5:53 am)17% (Apr 25, 11:53 am)29.81 "Hg (Apr 22, 3:53 pm)
Average65 °F61%29.97 "Hg
* Reported Apr 11 6:53 am — Apr 26 6:53 am, Long Beach, Weather by CustomWeather, © 2017

Note: Actual official high and low records may vary slightly from our data, if they occured in-between our weather recording intervals... More about our weather records

Advertising

Long Beach Weather History for the Previous 24 Hours

Scroll right to see more
 ConditionsComfort  
Time TempWeatherWind HumidityBarometerVisibility
6:53 am
Wed, Apr 26
58 °FSunny.No wind84%29.89 "Hg7 mi
5:53 am59 °FPassing clouds.No wind81%29.88 "Hg9 mi
4:53 am58 °FClear.3 mph84%29.87 "Hg9 mi
3:53 am59 °FClear.No wind78%29.88 "Hg9 mi
2:53 am59 °FClear.No wind78%29.88 "Hg10 mi
1:53 am60 °FClear.5 mph78%29.88 "Hg9 mi
12:53 am60 °FClear.5 mph78%29.89 "Hg9 mi
11:53 pm
Tue, Apr 25
62 °FClear.7 mph67%29.90 "Hg10 mi
10:53 pm63 °FClear.6 mph63%29.90 "Hg10 mi
9:53 pm70 °FClear.10 mph27%29.88 "Hg10 mi
8:53 pm71 °FClear.14 mph26%29.86 "Hg10 mi
7:53 pm66 °FClear.9 mph52%29.85 "Hg10 mi
6:53 pm66 °FSunny.14 mph52%29.84 "Hg10 mi
5:53 pm69 °FSunny.14 mph45%29.83 "Hg10 mi
4:53 pm69 °FSunny.13 mph45%29.84 "Hg10 mi
3:53 pm73 °FSunny.13 mph36%29.85 "Hg10 mi
2:53 pm74 °FSunny.15 mph28%29.87 "Hg10 mi
1:53 pm72 °FSunny.15 mph35%29.87 "Hg10 mi
12:53 pm75 °FSunny.10 mph27%29.90 "Hg10 mi
11:53 am76 °FSunny.21 mph17%29.90 "Hg10 mi
10:53 am75 °FSunny.22 mph19%29.90 "Hg10 mi
9:53 am68 °FSunny.6 mph53%29.90 "Hg10 mi
8:53 am66 °FSunny.3 mph56%29.88 "Hg10 mi
Weather by CustomWeather, © 2017

See weather overviewHow to use our weather pages